CW0214 Weather Reports


Display with metric or nautical units.
time (UTC)temp
F
wind
direction
speed
MPH
gust
MPH
rain 1hr
in
rain 24hr
in
rain mn
in
humidity
%
barometer
mb
20260510160405 61 51 5.0 13.0 0.02 0.13 0.06 81 1011.5
20260510155905 61 58 2.0 8.0 0.02 0.13 0.06 82 1011.5
20260510155405 61 36 2.0 12.0 0.02 0.13 0.06 82 1011.6
20260510154905 60 33 7.0 12.0 0.02 0.13 0.06 83 1011.6
20260510154407 60 71 5.0 14.0 0.02 0.13 0.06 84 1011.6
20260510152905 63 62 13.0 22.0 0.01 0.12 0.05 72 1011.7
20260510152405 63 60 5.0 15.0 0.00 0.11 0.04 69 1011.6
20260510151905 63 45 5.0 13.0 0.00 0.11 0.04 68 1011.4
20260510150905 63 47 13.0 24.0 0.00 0.11 0.04 66 1011.4
20260510150405 65 39 10.0 26.0 0.00 0.11 0.04 62 1011.3
20260510145905 65 48 12.0 23.0 0.00 0.11 0.04 60 1011.3
20260510145405 66 72 10.0 23.0 0.00 0.11 0.04 60 1011.3
20260510144905 66 38 7.0 22.0 0.00 0.11 0.04 59 1011.3
20260510144405 66 37 11.0 21.0 0.00 0.11 0.04 59 1011.3
20260510143906 66 33 12.0 21.0 0.00 0.11 0.04 58 1011.3
20260510143405 66 26 11.0 25.0 0.00 0.11 0.04 56 1011.2
20260510142904 67 38 11.0 21.0 0.00 0.11 0.04 56 1011.3
20260510142405 67 49 12.0 22.0 0.00 0.11 0.04 55 1011.3
20260510141905 67 43 6.0 16.0 0.00 0.11 0.04 55 1011.2
20260510141405 67 52 6.0 18.0 0.00 0.11 0.04 56 1011.3
20260510140905 67 60 6.0 15.0 0.00 0.11 0.04 54 1011.2
20260510140405 67 28 10.0 26.0 0.00 0.11 0.04 54 1011.3
20260510135905 67 60 9.0 24.0 0.00 0.11 0.04 52 1011.3
20260510135405 68 44 9.0 18.0 0.00 0.11 0.04 51 1011.2
20260510134905 68 63 5.0 14.0 0.00 0.11 0.04 53 1011.2
20260510134405 67 57 7.0 20.0 0.00 0.11 0.04 52 1011.3
20260510133905 68 47 10.0 24.0 0.00 0.11 0.04 52 1011.2
20260510133405 68 70 7.0 21.0 0.00 0.11 0.04 52 1011.3
20260510132905 67 32 10.0 23.0 0.00 0.11 0.04 54 1011.2
20260510132405 67 44 10.0 18.0 0.00 0.11 0.04 54 1011.3
20260510131905 67 91 8.0 15.0 0.00 0.11 0.04 56 1011.4
20260510131405 66 45 10.0 20.0 0.00 0.11 0.04 56 1011.4
20260510125905 66 40 8.0 20.0 0.00 0.11 0.04 56 1011.4
20260510125405 66 44 6.0 16.0 0.00 0.11 0.04 59 1011.3
20260510124905 65 81 6.0 13.0 0.00 0.11 0.04 61 1011.4
20260510124405 65 86 5.0 12.0 0.00 0.11 0.04 65 1011.5
20260510123905 64 56 5.0 15.0 0.00 0.11 0.04 64 1011.6
20260510123405 65 59 9.0 14.0 0.00 0.11 0.04 62 1011.5
20260510122905 65 23 10.0 18.0 0.00 0.11 0.04 62 1011.5
20260510122405 65 43 9.0 18.0 0.00 0.11 0.04 62 1011.7
20260510121405 63 39 7.0 18.0 0.00 0.11 0.04 62 1011.8
20260510120905 63 29 5.0 13.0 0.00 0.11 0.04 64 1011.8
20260510120405 62 55 7.0 20.0 0.00 0.11 0.04 65 1011.8
20260510115905 62 48 9.0 18.0 0.00 0.11 0.04 65 1011.9
20260510115405 62 69 11.0 20.0 0.00 0.11 0.04 64 1011.9
20260510114905 62 45 9.0 20.0 0.00 0.11 0.04 63 1012.0
20260510114405 63 39 12.0 23.0 0.00 0.11 0.04 60 1012.0
20260510113905 63 40 13.0 25.0 0.00 0.11 0.04 58 1011.9
20260510113405 65 40 16.0 26.0 0.00 0.11 0.04 56 1011.9
20260510112905 65 73 12.0 26.0 0.00 0.11 0.04 55 1011.8
20260510112405 66 44 14.0 28.0 0.00 0.11 0.04 52 1011.7
20260510111905 67 49 8.0 23.0 0.00 0.11 0.04 52 1011.7
20260510111405 66 54 9.0 20.0 0.00 0.11 0.04 50 1011.6
20260510110905 67 67 8.0 14.0 0.00 0.11 0.04 52 1011.6
20260510105905 66 90 11.0 18.0 0.00 0.11 0.04 53 1011.6
20260510105405 66 41 11.0 21.0 0.00 0.11 0.04 53 1011.5
20260510104905 64 64 16.0 25.0 0.00 0.11 0.04 57 1011.7
20260510104405 64 37 1.0 9.0 0.00 0.11 0.04 69 1011.6
20260510103905 63 155 1.0 7.0 0.00 0.11 0.04 70 1011.7
20260510103405 63 121 3.0 12.0 0.00 0.11 0.04 68 1011.8
20260510102905 64 76 6.0 13.0 0.00 0.11 0.04 62 1011.7
20260510102404 63 97 5.0 13.0 0.00 0.11 0.04 64 1011.8
20260510101905 63 30 9.0 18.0 0.00 0.11 0.04 64 1011.5
20260510101405 63 21 10.0 24.0 0.00 0.11 0.04 64 1011.4
20260510100905 63 44 9.0 23.0 0.00 0.11 0.04 64 1011.4
20260510100404 63 10 9.0 16.0 0.00 0.11 0.04 64 1011.4
20260510095905 62 27 9.0 16.0 0.00 0.11 0.04 67 1011.6
20260510095405 62 18 9.0 18.0 0.00 0.11 0.04 69 1011.7
20260510094905 61 53 8.0 13.0 0.00 0.11 0.04 69 1011.6
20260510094405 62 36 9.0 16.0 0.00 0.11 0.04 67 1011.6
20260510093404 62 34 7.0 12.0 0.00 0.11 0.04 68 1011.6
20260510092405 61 38 7.0 21.0 0.00 0.11 0.04 71 1011.7
20260510091904 61 43 11.0 20.0 0.00 0.11 0.04 71 1011.8
20260510090905 61 51 9.0 13.0 0.00 0.11 0.04 72 1011.8
20260510090405 61 36 12.0 15.0 0.00 0.11 0.04 71 1011.6
20260510085904 61 40 7.0 16.0 0.00 0.11 0.04 73 1011.6
20260510085405 61 46 6.0 14.0 0.00 0.11 0.04 74 1011.7
20260510084905 60 38 9.0 16.0 0.00 0.11 0.04 75 1011.6
20260510084405 60 58 9.0 15.0 0.00 0.11 0.04 74 1011.5
20260510083905 60 29 9.0 16.0 0.00 0.11 0.04 76 1011.6
20260510082905 59 23 10.0 18.0 0.00 0.11 0.04 77 1011.7
20260510082405 59 47 3.0 8.0 0.00 0.11 0.04 78 1011.6
20260510081905 58 24 4.0 13.0 0.00 0.11 0.04 79 1011.7
20260510081405 58 25 6.0 10.0 0.00 0.11 0.04 79 1011.7
20260510080904 58 40 6.0 10.0 0.00 0.11 0.04 80 1011.7
20260510075904 57 28 6.0 13.0 0.02 0.11 0.04 84 1011.8
20260510075405 56 32 5.0 12.0 0.03 0.11 0.04 86 1011.7
20260510074905 55 14 4.0 8.0 0.03 0.12 0.04 87 1011.7
20260510073905 54 36 4.0 9.0 0.03 0.12 0.04 89 1011.6
20260510073404 54 38 2.0 8.0 0.03 0.12 0.04 90 1011.5
20260510072905 54 37 2.0 7.0 0.03 0.12 0.04 90 1011.4
20260510072405 54 81 1.0 6.0 0.03 0.12 0.04 91 1011.4
20260510071905 54 68 2.0 7.0 0.03 0.13 0.04 91 1011.5
20260510071405 54 56 3.0 8.0 0.03 0.13 0.04 90 1011.4
20260510070904 54 70 5.0 12.0 0.03 0.13 0.04 90 1011.4
20260510065905 54 39 3.0 7.0 0.01 0.11 0.02 91 1011.5
20260510065404 54 37 2.0 7.0 0.00 0.12 0.01 91 1011.4
20260510064905 54 37 4.0 6.0 0.00 0.13 0.01 91 1011.2
20260510064405 54 32 3.0 7.0 0.00 0.13 0.01 91 1011.1
20260510063905 54 32 4.0 8.0 0.00 0.14 0.01 91 1011.2
20260510063405 54 45 2.0 8.0 0.00 0.15 0.01 91 1011.1
20260510062905 54 30 3.0 8.0 0.00 0.15 0.01 91 1011.2
20260510062405 54 42 4.0 7.0 0.00 0.16 0.01 91 1011.1
20260510061905 54 22 5.0 7.0 0.00 0.16 0.01 91 1011.0
20260510060904 54 33 5.0 7.0 0.00 0.17 0.01 91 1010.9
20260510055904 54 29 3.0 9.0 0.01 0.17 0.01 91 1010.8
20260510055406 54 37 7.0 10.0 0.01 0.17 0.01 92 1010.7
20260510054404 54 19 6.0 12.0 0.01 0.17 0.01 92 1010.6
20260510053905 54 45 5.0 10.0 0.01 0.17 0.01 92 1010.5
20260510053405 54 40 4.0 7.0 0.01 0.17 0.01 92 1010.5
20260510052905 54 47 2.0 8.0 0.01 0.17 0.01 92 1010.4
20260510052405 54 33 5.0 7.0 0.01 0.17 0.01 92 1010.4
20260510051405 54 58 5.0 9.0 0.01 0.17 0.01 93 1010.2
20260510050904 54 20 6.0 12.0 0.01 0.17 0.01 93 1010.2
20260510050405 54 68 3.0 8.0 0.01 0.17 0.01 93 1010.4
20260510045905 54 31 5.0 8.0 0.00 0.16 0.00 93 1010.2
20260510044905 53 21 4.0 9.0 0.00 0.16 0.00 93 1010.2
20260510043905 53 25 6.0 9.0 0.00 0.16 0.00 92 1010.2
20260510043404 53 9 6.0 9.0 0.00 0.16 0.00 92 1010.2
20260510042905 53 29 5.0 9.0 0.00 0.16 0.00 92 1010.2
20260510042404 53 28 5.0 9.0 0.00 0.16 0.00 92 1010.2
20260510041905 53 10 5.0 8.0 0.00 0.16 0.00 92 1010.2
20260510041404 53 23 6.0 10.0 0.00 0.16 0.00 92 1010.2
20260510040904 53 20 5.0 8.0 0.00 0.16 0.00 92 1010.2
20260510040405 53 24 5.0 7.0 0.00 0.16 0.00 92 1010.3
20260510035905 53 10 5.0 8.0 0.00 0.16 0.00 92 1010.4
20260510035404 53 27 2.0 8.0 0.00 0.16 0.00 91 1010.4
20260510034905 53 16 5.0 9.0 0.00 0.16 0.00 91 1010.3
20260510034405 53 26 5.0 7.0 0.00 0.20 0.00 91 1010.3
20260510032404 54 31 3.0 7.0 0.00 0.20 0.00 91 1010.1
20260510031905 54 26 4.0 7.0 0.00 0.20 0.00 91 1010.2
20260510031405 54 355 4.0 8.0 0.00 0.20 0.00 91 1010.2
20260510030905 54 10 5.0 13.0 0.00 0.20 0.00 91 1010.3
20260510030404 54 4 7.0 12.0 0.00 0.20 0.00 92 1010.2
20260510024904 54 22 5.0 14.0 0.00 0.20 0.00 92 1010.2
20260510024405 54 17 5.0 8.0 0.00 0.20 0.00 91 1010.0
20260510023905 55 15 3.0 7.0 0.00 0.20 0.00 91 1010.0
20260510022904 55 24 4.0 10.0 0.00 0.20 0.00 91 1010.0
20260510021904 55 17 5.0 12.0 0.00 0.20 0.00 91 1010.0
20260510021405 55 10 6.0 12.0 0.00 0.20 0.00 91 1010.2
20260510020905 55 26 6.0 12.0 0.00 0.20 0.00 91 1010.3
20260510020405 55 15 4.0 9.0 0.00 0.20 0.00 91 1010.4
20260510015904 55 34 4.0 8.0 0.00 0.20 0.00 91 1010.4
20260510015404 55 34 5.0 8.0 0.00 0.20 0.00 91 1010.4
20260510014905 55 23 5.0 9.0 0.00 0.20 0.00 92 1010.5
20260510014404 55 12 6.0 9.0 0.00 0.20 0.00 92 1010.4
20260510013905 55 16 5.0 12.0 0.00 0.20 0.00 92 1010.5
20260510013405 55 12 5.0 12.0 0.00 0.20 0.00 92 1010.5
20260510012904 55 25 4.0 9.0 0.00 0.20 0.00 92 1010.5
20260510012405 56 30 5.0 9.0 0.00 0.20 0.00 92 1010.6
20260510011404 56 19 5.0 7.0 0.00 0.20 0.00 92 1010.7
20260510010904 56 14 5.0 8.0 0.00 0.20 0.00 92 1010.8
20260510005905 56 9 4.0 8.0 0.00 0.20 0.00 92 1010.8
20260510005404 56 22 2.0 9.0 0.00 0.20 0.00 92 1010.9
20260510003904 55 47 3.0 6.0 0.00 0.20 0.00 92 1010.9
20260510003405 56 18 2.0 3.0 0.00 0.20 0.00 92 1011.0
20260510002404 56 45 6.0 12.0 0.00 0.20 0.00 92 1011.1
20260510001905 55 37 5.0 15.0 0.00 0.20 0.00 92 1011.0
20260510001405 55 27 1.0 12.0 0.00 0.20 0.00 93 1011.0
20260510000904 55 29 2.0 7.0 0.00 0.20 0.00 92 1011.2
20260510000404 55 55 1.0 5.0 0.00 0.20 0.00 92 1011.2
20260509235905 55 55 1.0 5.0 0.00 0.20 0.00 93 1011.2
20260509235404 55 55 0.0 2.0 0.00 0.20 0.00 92 1011.3
20260509234904 55 55 0.0 0.0 0.00 0.20 0.00 92 1011.3
20260509234405 55 55 0.0 3.0 0.00 0.20 0.00 92 1011.4
20260509233404 55 55 0.0 1.0 0.00 0.20 0.00 92 1011.5
20260509232904 55 55 0.0 0.0 0.01 0.20 0.00 92 1011.5
20260509232404 55 55 0.0 1.0 0.02 0.20 0.00 92 1011.5
20260509231905 55 55 0.0 2.0 0.02 0.20 0.00 92 1011.5
20260509231405 55 33 2.0 10.0 0.02 0.20 0.00 92 1011.4
20260509230904 56 45 2.0 6.0 0.02 0.20 0.00 92 1011.3
20260509230405 55 13 4.0 8.0 0.02 0.20 0.00 92 1011.4
20260509225905 55 22 4.0 9.0 0.02 0.20 0.20 92 1011.3
20260509225404 55 32 6.0 8.0 0.02 0.20 0.20 92 1011.2
20260509224904 55 20 5.0 8.0 0.02 0.20 0.20 92 1011.2
20260509224404 55 10 5.0 8.0 0.02 0.20 0.20 92 1011.2
20260509223904 56 30 5.0 13.0 0.02 0.20 0.20 92 1011.2
20260509223405 56 19 6.0 13.0 0.02 0.20 0.20 91 1011.4
20260509222904 56 13 5.0 12.0 0.02 0.20 0.20 91 1011.3
20260509222405 56 37 5.0 10.0 0.00 0.19 0.19 91 1011.3
20260509221904 56 27 3.0 9.0 0.00 0.19 0.19 91 1011.2
20260509220405 56 32 0.0 5.0 0.00 0.19 0.19 91 1011.2
20260509215904 56 32 2.0 3.0 0.00 0.19 0.19 91 1011.3
20260509215405 56 32 1.0 6.0 0.00 0.20 0.19 90 1011.2
20260509214905 56 32 0.0 6.0 0.00 0.20 0.19 90 1011.3
20260509214404 56 32 2.0 5.0 0.00 0.20 0.19 90 1011.2
20260509213905 56 32 1.0 5.0 0.00 0.20 0.19 90 1011.2
20260509213404 56 32 3.0 5.0 0.00 0.20 0.19 91 1011.2
20260509212905 56 32 2.0 7.0 0.00 0.20 0.19 91 1011.1
20260509212404 56 32 2.0 6.0 0.00 0.20 0.19 91 1011.0
20260509211904 56 32 3.0 6.0 0.00 0.20 0.19 91 1011.0
20260509211405 56 32 3.0 8.0 0.00 0.20 0.19 91 1011.0
20260509210905 56 32 2.0 7.0 0.00 0.20 0.19 91 1010.9
20260509210404 57 32 1.0 5.0 0.00 0.20 0.19 91 1010.9
20260509205905 57 32 0.0 6.0 0.00 0.20 0.19 90 1010.8
20260509205405 57 32 3.0 6.0 0.00 0.20 0.19 90 1010.8
20260509204905 57 32 2.0 5.0 0.00 0.20 0.19 90 1010.7
20260509203904 57 32 3.0 6.0 0.00 0.20 0.19 89 1010.6
20260509203405 57 32 3.0 6.0 0.00 0.20 0.19 89 1010.5
20260509201904 57 32 3.0 5.0 0.00 0.20 0.19 87 1010.2
20260509201405 58 32 0.0 5.0 0.00 0.20 0.19 87 1010.2
20260509200904 58 32 3.0 6.0 0.00 0.21 0.19 86 1010.2
20260509200404 58 32 0.0 5.0 0.00 0.21 0.19 86 1010.1
20260509195904 58 30 1.0 5.0 0.00 0.21 0.19 86 1010.0
20260509195404 58 29 0.0 6.0 0.00 0.21 0.19 86 1010.0
20260509194905 58 19 1.0 6.0 0.00 0.21 0.19 86 1009.9
20260509193904 58 19 2.0 5.0 0.00 0.26 0.19 86 1009.6
20260509193404 58 17 0.0 5.0 0.00 0.26 0.19 86 1009.6
20260509192905 58 15 0.0 2.0 0.00 0.26 0.19 86 1009.5
20260509192406 58 14 1.0 7.0 0.00 0.26 0.19 86 1009.4
20260509191405 59 15 1.0 6.0 0.00 0.26 0.19 86 1009.4
20260509190905 58 10 4.0 9.0 0.00 0.26 0.19 85 1009.3
20260509190406 58 72 2.0 8.0 0.00 0.26 0.19 85 1009.3
20260509185905 58 55 2.0 7.0 0.00 0.26 0.19 85 1009.2
20260509185405 58 48 2.0 8.0 0.00 0.26 0.19 85 1009.2
20260509184905 58 44 2.0 6.0 0.00 0.26 0.19 84 1009.1
20260509183406 58 38 6.0 12.0 0.00 0.26 0.19 83 1008.8
20260509182405 58 27 5.0 9.0 0.00 0.26 0.19 83 1008.8
20260509181405 58 37 6.0 13.0 0.00 0.26 0.19 86 1008.8
20260509180905 58 39 3.0 7.0 0.00 0.26 0.19 87 1008.7
20260509180406 58 36 2.0 6.0 0.01 0.26 0.19 87 1008.7
20260509175905 58 48 0.0 1.0 0.01 0.26 0.19 88 1008.6
20260509175407 58 37 0.0 5.0 0.02 0.26 0.19 88 1008.6
20260509173405 57 85 1.0 3.0 0.06 0.26 0.19 87 1008.6
20260509172905 57 85 1.0 3.0 0.06 0.26 0.19 87 1008.4
20260509172405 57 85 0.0 1.0 0.06 0.26 0.19 88 1008.3
20260509171905 56 85 0.0 6.0 0.06 0.26 0.19 87 1008.2
20260509171405 56 110 0.0 5.0 0.06 0.26 0.19 87 1008.3
20260509170906 56 124 2.0 9.0 0.06 0.26 0.19 87 1008.3
20260509170406 57 123 2.0 6.0 0.05 0.25 0.18 86 1008.3
20260509165906 57 112 2.0 9.0 0.05 0.25 0.18 85 1008.5
20260509165405 57 150 2.0 9.0 0.03 0.24 0.17 85 1008.1
20260509164905 57 145 2.0 13.0 0.02 0.22 0.15 84 1008.2
20260509164405 58 124 3.0 12.0 0.01 0.21 0.14 83 1008.1
20260509163905 59 139 3.0 12.0 0.01 0.21 0.14 83 1008.1
20260509163405 60 104 5.0 13.0 0.00 0.20 0.13 82 1008.0
20260509162905 60 111 6.0 12.0 0.00 0.20 0.13 81 1007.8
20260509162406 61 93 5.0 16.0 0.00 0.20 0.13 80 1007.7
20260509161905 61 90 3.0 16.0 0.00 0.20 0.13 80 1007.7
20260509161405 61 75 3.0 10.0 0.00 0.20 0.13 80 1007.6
20260509160906 61 57 7.0 12.0 0.00 0.20 0.13 78 1007.4